{"data":{"norad_id":63116,"epoch":"2026-09-21T08:38:19.249728Z","epoch_age_seconds":87942,"freshness":"FRESH","line1":"1 63116U 25039N   26264.35994502  .00128170  00000+0  98654-3 0  9996","line2":"2 63116  42.9977 137.0213 0000466  29.3018 330.7876 15.70851608 90399","mean_motion":15.70851608,"eccentricity":4.66e-5,"inclination_deg":42.9977,"raan_deg":137.0213,"arg_perigee_deg":29.3018,"mean_anomaly_deg":330.7876,"bstar":0.00098654,"rev_number":9039,"period_min":91.670021067961,"perigee_km":356.14805162841,"apogee_km":356.77571624439,"semimajor_km":6734.5988839364,"source":"CELESTRAK","updated_at":"2026-09-22T09:00:49.765023Z"}}